Location: ČR
(50.0000°N, 15.0000°E)
Time: 15:51:33
(UTC+00:00)

X-37B - Visible Passes

Search period start: 24 June 2021 00:00
Search period end: 04 July 2021 00:00
Orbit: 386 x 389 km, 45.0° (Epoch: 10 June)

Date Brightness Start Highest point End Pass type
(mag) Time Alt. Az. Time Alt. Az. Time Alt. Az.
24 Jun 1.5 21:11:26 10° SW 21:14:14 29° S 21:15:11 24° SE visible
25 Jun 1.8 20:13:25 10° SW 20:16:02 23° SSE 20:18:39 10° ESE visible
25 Jun 1.4 21:49:20 10° WSW 21:51:53 32° SSW 21:51:53 32° SSW visible
26 Jun 1.3 20:51:06 10° WSW 20:54:00 32° S 20:56:01 16° ESE visible
26 Jun 2.8 22:27:30 10° WSW 22:28:17 15° WSW 22:28:17 15° WSW visible
27 Jun 1.6 19:52:57 10° SW 19:55:46 29° S 19:58:35 10° ESE visible
27 Jun 1.4 21:29:09 10° WSW 21:32:00 30° S 21:32:17 30° S visible
28 Jun 1.4 20:30:51 10° WSW 20:33:45 33° S 20:36:14 13° ESE visible
28 Jun 2.7 22:07:30 10° WSW 22:08:29 15° SW 22:08:29 15° SW visible
29 Jun 1.8 21:09:02 10° WSW 21:11:44 25° SSW 21:12:24 23° S visible
30 Jun 1.6 20:10:41 10° WSW 20:13:31 30° S 20:16:18 10° SE visible
30 Jun 2.9 21:47:46 10° WSW 21:48:33 13° SW 21:48:33 13° SW visible
01 Jul 2.2 20:49:02 10° WSW 20:51:27 20° SSW 20:52:27 17° S visible
03 Jul 2.8 20:29:18 10° WSW 20:31:06 14° SSW 20:32:34 11° S visible
